Location: Caixon
(43.4106°N, 0.0273°E)
Time: 04:11:09
(UTC+00:00)

Cosmos 2366 rocket - Pass Details

Date: 16 October 2021
Orbit: 956 x 996 km, 82.9° (Epoch: 30 November)

Event Time Altitude Azimuth Distance (km) Brightness Sun altitude
Rises 04:48:56 0° 352° (N) 3,704 7.0 -16.4°
Reaches altitude 10° 04:51:27 10° 353° (N) 2,757 6.3 -15.9°
Maximum altitude 04:57:49 86° 83° (E) 1,001 4.1 -14.8°
Drops below altitude 10° 05:04:09 10° 172° (S) 2,754 6.5 -13.6°
Sets 05:06:40 0° 173° (S) 3,700 7.1 -13.2°
